Islip, NY

8:11 PM EDT on October 22, 2017 (GMT -0400)
Long Island Mac Arthur

Weather History for KISP - June, 2014

Change the Weather History Date:

Thursday, June 26, 2014

  Actual Average Record
Temperature  
Mean Temperature 78 °F 72 °F  
Max Temperature 88 °F 80 °F 93 °F (1997)
Min Temperature 68 °F 64 °F 50 °F (1986)
Degree Days  
Heating Degree Days 0 0  
Month to date heating degree days 2 36  
Since 1 June heating degree days 2 36  
Since 1 July heating degree days 5459 5426  
Cooling Degree Days 13 7  
Month to date cooling degree days 141 111  
Year to date cooling degree days 170 135  
Since 1 June cooling degree days 141 111  
Growing Degree Days 28 (Base 50)    
Moisture  
Dew Point 67 °F    
Average Humidity 65    
Maximum Humidity 87    
Minimum Humidity 43    
Precipitation  
Precipitation 0.12 in 0.12 in 1.13 in (2009)
Month to date precipitation 1.79 3.83  
Year to date precipitation 23.53 23.29  
Snow  
Snow 0.00 in 0.00 in - ()
Month to date snowfall 0.0 0.0  
Since 1 July snowfall 63.7 24.8  
Snow Depth 0.00 in    
Sea Level Pressure  
Sea Level Pressure 29.84 in    
Wind  
Wind Speed 9 mph (WNW)    
Max Wind Speed 16 mph    
Max Gust Speed 21 mph    
Visibility 8 miles    
Events Rain , Thunderstorm    
T = Trace of Precipitation, MM = Missing Value Source: NWS Daily Summary

Daily Weather History Graph

Daily Weather History Graph

Search for Another Location

Airport or City:

Trip Planner

Search our weather history database for the weather conditions in past years. The results will help you decide how hot, cold, wet, or windy it might be!

Date:

Astronomy

Jun. 26, 2014 Rise Set
Actual Time 5:22 AM EDT 8:27 PM EDT
Civil Twilight 4:49 AM EDT 9:01 PM EDT
Nautical Twilight 4:06 AM EDT 9:43 PM EDT
Astronomical Twilight 3:16 AM EDT 10:34 PM EDT
Moon 5:00 AM EDT (6/26) 7:46 PM EDT (6/26)
Length of Visible Light 16h 12m
Length of Day
15h 05m
Waning Crescent, 0% of the Moon is Illuminated
Jun 26
Waning Crescent
Jun 27
New
Jul 5
First Quarter
Jul 12
Full
Jul 18
Last Quarter

Hourly Weather History & Observations

Time (EDT) Temp. Heat Index Dew Point Humidity Pressure Visibility Wind Dir Wind Speed Gust Speed Precip Events Conditions
12:56 AM 73.9 °F - 70.0 °F 87% 29.82 in 9.0 mi SSW 10.4 mph - N/A   Overcast
1:11 AM 73.4 °F - 69.8 °F 88% 29.82 in 8.0 mi SSW 10.4 mph - N/A Thunderstorm Overcast
1:51 AM 73.4 °F - 69.8 °F 88% 29.82 in 2.0 mi SSW 6.9 mph - 0.07 in Rain , Thunderstorm Heavy Rain
1:56 AM 73.0 °F - 70.0 °F 90% 29.82 in 3.0 mi SSW 8.1 mph - 0.10 in Rain Light Rain
2:56 AM 73.0 °F - 71.1 °F 93% 29.81 in 7.0 mi WSW 8.1 mph - 0.02 in   Overcast
3:35 AM 73.4 °F - 71.6 °F 94% 29.79 in 6.0 mi Calm Calm - N/A   Overcast
4:56 AM 73.0 °F - 70.0 °F 90% 29.79 in 5.0 mi Calm Calm - 0.00 in   Partly Cloudy
5:56 AM 73.0 °F - 70.0 °F 90% 29.81 in 3.0 mi West 4.6 mph - N/A   Mostly Cloudy
6:06 AM 73.4 °F - 69.8 °F 88% 29.81 in 1.5 mi West 3.5 mph - N/A   Overcast
6:52 AM 73.4 °F - 69.8 °F 88% 29.82 in 4.0 mi WNW 3.5 mph - N/A   Mostly Cloudy
6:56 AM 73.0 °F - 70.0 °F 90% 29.82 in 4.0 mi West 4.6 mph - N/A   Mostly Cloudy
7:30 AM 75.2 °F - 69.8 °F 83% 29.82 in 6.0 mi West 5.8 mph - N/A   Haze
7:56 AM 75.9 °F - 70.0 °F 82% 29.83 in 8.0 mi West 4.6 mph - N/A   Mostly Cloudy
8:36 AM 77.0 °F - 69.8 °F 78% 29.83 in 9.0 mi West 5.8 mph - N/A   Mostly Cloudy
8:56 AM 78.1 °F - 70.0 °F 76% 29.83 in 10.0 mi West 6.9 mph - N/A   Mostly Cloudy
9:56 AM 77.0 °F - 69.1 °F 76% 29.83 in 10.0 mi NW 9.2 mph - N/A   Overcast
10:25 AM 80.6 °F 83.9 °F 69.8 °F 70% 29.83 in 10.0 mi NNW 10.4 mph - N/A   Mostly Cloudy
10:56 AM 81.0 °F 84.1 °F 69.1 °F 67% 29.83 in 10.0 mi NNW 11.5 mph - N/A   Mostly Cloudy
11:56 AM 82.9 °F 85.8 °F 68.0 °F 60% 29.83 in 10.0 mi NNW 12.7 mph - N/A   Mostly Cloudy
12:56 PM 84.9 °F 87.6 °F 66.9 °F 55% 29.82 in 10.0 mi NNW 12.7 mph 18.4 mph N/A   Mostly Cloudy
1:56 PM 84.0 °F 85.8 °F 64.9 °F 53% 29.82 in 10.0 mi NNW 9.2 mph 16.1 mph N/A   Mostly Cloudy
2:56 PM 86.0 °F 87.6 °F 64.9 °F 49% 29.81 in 10.0 mi NW 12.7 mph - N/A   Mostly Cloudy
3:56 PM 87.1 °F 88.9 °F 64.9 °F 48% 29.81 in 10.0 mi NNW 8.1 mph - N/A   Mostly Cloudy
5:56 PM 87.1 °F 87.8 °F 63.0 °F 44% 29.83 in 10.0 mi NW 8.1 mph - N/A   Mostly Cloudy
6:56 PM 84.9 °F 86.1 °F 64.0 °F 49% 29.84 in 10.0 mi NW 10.4 mph - N/A   Scattered Clouds
7:56 PM 82.0 °F 83.4 °F 64.0 °F 54% 29.85 in 10.0 mi NNW 9.2 mph - N/A   Scattered Clouds
8:56 PM 80.1 °F 81.9 °F 64.9 °F 60% 29.86 in 10.0 mi NNW 9.2 mph - N/A   Mostly Cloudy
9:56 PM 72.0 °F - 63.0 °F 73% 29.92 in 10.0 mi East 13.8 mph - N/A   Mostly Cloudy
10:56 PM 70.0 °F - 62.1 °F 76% 29.94 in 10.0 mi East 11.5 mph - N/A   Overcast
11:35 PM 69.8 °F - 60.8 °F 73% 29.96 in 10.0 mi East 11.5 mph - N/A   Overcast
11:56 PM 69.1 °F - 61.0 °F 75% 29.97 in 10.0 mi East 12.7 mph - N/A   Overcast